CZ-6A DEB, 64645

Orbit data source: Space-Track

CZ-6A DEB, 64645 is space debris in LEO originally from a launch on Tue, 06 Aug 2024 UTC launched from the Taiyaun Space Center, China (TSC). Debris objects in space refer to the collection of defunct objects orbiting the Earth. Examples of debris include non-operational satellites, rocket bodies, and fragments generated from explosions, collisions, or faulty payload assembly.

Loading next visibility...
Identifier
64645, 2024-140AEK
Orbit
LEO
Country
Flag of CNCN / PRC
Related business
Manufacturer
SAST
Mission
Spacecraft
Bus & Motor
Unknown
Mass
Unknown
Launch date (UTC)
2024-08-06 (2 years ago)
Launch vehicle
Unknown
Launch site
Taiyaun Space Center, China (TSC)
Object type
Payload
Rocket body
Debris
Shape & HBR
Unknown shape, 0.1 m
Radar Cross Section
Medium (>0.1 m² and <1 m²)

Expand to show TLE details & history
Last TLE update: 17 hours ago

TLE from 17 hours ago
0 CZ-6A DEB
1 64645U 24140AEK 26171.12154888  .00001224  00000-0  63191-3 0  9992
2 64645  88.3209 222.0467 0090817 201.4196 158.3180 14.12308224 87567
Epoch: 2026-06-20T02:55Z
TLE epoch observation values (Epoch: 2026-06-20T02:55:01.823Z)
Latitude
-0.00001°
Longitude
-90.05161°
Altitude
915.628 km
Speed
7.363 km/s
True Right ascension
14h 48m 11s
True Declination
0° 00' 00"
Sunlit
Object was in full shadow at epoch
Visualization orbit readout
Latitude
Unknown
Longitude
Unknown
Altitude
Unknown
Speed
Unknown
Apparent Right ascension
Unknown
Apparent Declination
Unknown
Sunlit
N/A
Visualization observer readout
Local Sidereal Time
07:19:19
Azimuth
Unknown
Elevation
Unknown
Doppler factor
Unknown
Orbital elements
Apogee altitude
914.08 km
Perigee altitude
782.821 km
Semi-major axis
7,226.588 km
Eccentricity
0.00908
Inclination
88.3209°
RAAN
222.0467°
Arg. of periapsis
201.4196°
True anomaly
158.69847°
Mean anomaly
158.318°
Eccentric anomaly
158.50863°
Mean motion
3.533 °/min
Orbital period
101.9 mins
BSTAR
0.00063191
Loading maneuver chart data...
Computing Atmospheric mass density...
Loading historical data...
Loading historical data...
Loading historical data...
Loading historical data...
Loading historical data...
Loading historical data...
Loading historical data...

Documentation

Showing up to 5 results
|